[[{"header":{"parameterUnit":"m.s-1","parameterCategory":1,"la1":30.2991,"la2":30.254,"lo1":-89.0895,"lo2":-89.0444,"dy":0.0017,"dx":0.0017,"nx":28,"ny":28,"refTime":"2023-06-25T21:00:00:Z","depth":0,"parameterNumber":2,"parameterNumberName":"U-component_of_WINDS"},"data":[0,0,0,0,0,0,0,0,0,0,0,0,0,0,0,0,0,0,0,0,0,0,0,0,0,0,0,0,0,0,0,0,0,0,0,0,0,0,0,0,0,0,0,0,0,0,0,0,0,0,0,0,0,0,0,0,0,0,3.1986,3.1986,0,3.1966,3.1966,3.1965,3.1907,3.1906,3.1905,3.1903,3.1884,3.1885,3.1885,0,0,0,0,0,0,0,0,0,0,0,0,0,3.1976,3.1977,3.1986,3.1986,3.1986,3.1966,3.1966,3.1965,3.1907,3.1906,3.1904,3.1903,3.1884,3.1885,3.1885,0,0,0,0,0,0,0,0,0,0,0,0,0,3.1971,3.1977,3.1986,3.1954,3.1951,3.1966,3.1966,3.1965,3.1908,3.1906,3.1904,3.1902,3.1883,3.1884,3.1885,3.193,0,0,3.1888,3.1889,0,0,0,0,0,0,0,0,3.1971,3.1971,3.1959,3.1956,3.1953,3.1937,3.1955,3.1953,3.1908,3.1924,3.1903,3.1901,3.1903,3.1902,3.1903,3.1929,3.1928,3.1889,3.1889,3.189,3.189,0,0,0,0,0,0,0,3.1972,3.1972,3.1978,3.1959,3.1955,3.1942,3.1939,3.1954,3.1925,3.1923,3.1918,3.1917,3.1901,3.1902,3.1902,3.1928,3.1889,3.1889,3.189,3.189,3.1992,3.1994,0,0,0,0,0,0,3.1977,3.1973,3.1979,3.1977,3.1958,3.1943,3.194,3.1944,3.1924,3.192,3.1918,3.1914,3.1901,3.1901,3.1901,3.1954,3.189,3.1891,3.1891,3.1989,3.1992,3.1994,0,0,0,0,0,0,3.1977,3.1978,3.198,3.1974,3.1973,3.1946,3.1951,3.1945,3.1946,3.1921,3.1916,3.1925,3.19,3.19,3.1924,3.1952,3.1891,3.1892,3.1987,3.199,3.1993,3.2058,0,0,0,0,0,0,3.1977,3.1978,3.1994,3.1975,3.1974,3.2002,3.1952,3.1946,3.1947,3.1942,3.1926,3.1921,3.1898,3.1922,3.1925,3.1952,3.1893,3.1984,3.1988,3.1992,3.2054,3.2063,3.2072,0,0,0,0,0,3.1976,3.2013,3.1995,3.1996,3.1993,3.2004,3.2003,3.1976,3.195,3.1966,3.1951,3.1922,3.1948,3.1925,3.1927,3.1956,3.1982,3.1987,3.1992,3.2049,3.2061,3.2071,0,0,0,0,0,0,3.2037,3.201,3.199,3.2021,3.2015,3.1994,3.2014,3.1989,3.199,3.1985,3.1951,3.1948,3.1977,3.1968,3.1943,3.1999,3.1961,3.1966,3.2004,3.2015,3.2024,3.2026,3.1894,0,0,0,0,0,3.2053,3.2064,3.204,3.207,3.2068,3.2042,3.2045,3.2025,3.2017,3.2014,3.2001,3.1995,3.2002,3.2008,3.2013,3.2051,3.2048,3.2072,3.2081,3.2089,3.2094,3.2116,3.2127,3.201,3.201,3.201,0,0,3.2088,3.2075,3.2084,3.2082,3.2075,3.2087,3.204,3.2054,3.2064,3.2017,3.2039,3.2029,3.202,3.2052,3.2066,3.2046,3.2126,3.2095,3.2101,3.2102,3.2122,3.2134,3.2144,3.2013,3.2012,3.2012,0,0,3.2159,3.2149,3.2174,3.2168,3.2158,3.2141,3.2147,3.213,3.2121,3.2143,3.2108,3.2119,3.2131,3.2128,3.2127,3.2198,3.2172,3.22,3.2248,3.227,3.228,3.2288,3.2315,3.2325,3.2206,3.2206,3.2206,0,3.2204,3.2221,3.219,3.2208,3.2209,3.2167,3.2193,3.2188,3.2181,3.2183,3.216,3.2177,3.2168,3.22,3.2217,3.2217,3.2225,3.2203,3.2281,3.2288,3.2296,3.2321,3.2332,3.2209,3.2209,3.2209,3.2208,0,3.2279,3.2291,3.2312,3.2307,3.231,3.2331,3.2305,3.2311,3.2291,3.2276,3.23,3.2287,3.229,3.2296,3.2275,3.2325,3.2314,3.2286,3.2248,3.2311,3.2335,3.2344,3.2215,3.2213,3.2212,3.2211,0,0,3.2387,3.2365,3.2373,3.2371,3.2357,3.2367,3.2387,3.2389,3.2397,3.2393,3.2411,3.2423,3.2398,3.2398,3.2377,3.2396,3.2455,3.2366,3.2366,3.2385,3.2512,3.2534,3.2546,3.2437,3.2439,3.244,3.2513,0,3.2456,3.249,3.2463,3.2501,3.2514,3.2474,3.2492,3.2486,3.2473,3.2482,3.2467,3.2477,3.2442,3.2442,3.2459,3.2445,3.2481,3.2438,3.2455,3.2456,3.246,3.2558,3.2581,3.2651,3.2522,3.2524,3.2525,0,3.2541,3.2542,3.2582,3.2567,3.2571,3.2588,3.2589,3.2598,3.2591,3.258,3.258,3.2554,3.2574,3.2535,3.2563,3.2535,3.254,3.2534,3.2536,3.2538,3.2496,3.2565,3.2672,3.2683,3.2539,3.2538,3.2537,0,3.262,3.263,3.2656,3.2655,3.2638,3.2651,3.2644,3.2635,3.2639,3.264,3.2643,3.2646,3.2649,3.2652,3.2629,3.2602,3.2661,3.2619,3.2654,3.2655,3.267,3.267,3.2781,3.2669,3.2669,3.2669,3.2669,0,3.2701,3.2728,3.2692,3.2708,3.2737,3.2706,3.2736,3.2725,3.2718,3.2732,3.2697,3.2711,3.2678,3.2689,3.267,3.2698,3.2699,3.2692,3.2687,3.2696,3.2697,3.27,3.2696,3.2672,3.2671,3.2671,3.267,0,3.2794,3.2771,3.2797,3.2779,3.2775,3.2797,3.2782,3.2797,3.2781,3.28,3.2802,3.2778,3.2789,3.2766,3.2773,3.2761,3.2801,3.2787,3.2803,3.28,3.2837,3.2835,3.2957,3.2972,3.2848,3.285,3.2851,0,3.2849,3.2868,3.2852,3.2859,3.2855,3.2866,3.287,3.2841,3.2847,3.2841,3.2857,3.2865,3.287,3.2891,3.2874,3.2881,3.2868,3.2911,3.2869,3.2879,3.2872,3.2872,3.2875,3.292,3.2921,3.2923,3.2924,0,3.2949,3.2936,3.2943,3.2947,3.2953,3.2954,3.2953,3.2961,3.2929,3.2938,3.2949,3.2953,3.2962,3.2971,3.2974,3.2968,3.2942,3.2936,3.2945,3.2956,3.2966,3.2963,3.2829,3.2934,3.2933,3.2932,3.2932,3.2931,3.3026,3.3042,3.3034,3.3044,3.304,3.304,3.3053,3.3039,3.3048,3.3053,3.3034,3.3051,3.3044,3.3045,3.3042,3.3054,3.3036,3.3048,3.3051,3.3056,3.3063,3.2962,3.3055,3.3054,3.3054,3.3054,3.3053,0,3.3126,3.3119,3.3128,3.3128,3.3136,3.3109,3.3106,3.3115,3.313,3.3125,3.3132,3.3146,3.3155,3.3139,3.3146,3.316,3.3148,3.3163,3.3163,3.3162,3.3078,3.3071,3.3172,3.3172,3.3172,3.3172,3.3172,3.3172,3.3179,3.3207,3.3194,3.3219,3.3211,3.3227,3.3228,3.3228,3.3225,3.3242,3.325,3.3239,3.3231,3.3238,3.3245,3.3241,3.3246,3.3266,3.3257,3.3179,3.3168,3.3157,3.315,3.3266,3.3266,3.334,3.3341,3.3342]},{"header":{"parameterUnit":"m.s-1","parameterCategory":1,"la1":30.2991,"la2":30.254,"lo1":-89.0895,"lo2":-89.0444,"dy":0.0017,"dx":0.0017,"nx":28,"ny":28,"refTime":"2023-06-25T21:00:00:Z","depth":0,"parameterNumber":3,"parameterNumberName":"V-component_of_WINDS"},"data":[0,0,0,0,0,0,0,0,0,0,0,0,0,0,0,0,0,0,0,0,0,0,0,0,0,0,0,0,0,0,0,0,0,0,0,0,0,0,0,0,0,0,0,0,0,0,0,0,0,0,0,0,0,0,0,0,0,0,-0.1119,-0.112,0,-0.1164,-0.1165,-0.1165,-0.1188,-0.1188,-0.1188,-0.1188,-0.1235,-0.1237,-0.1238,0,0,0,0,0,0,0,0,0,0,0,0,0,-0.1055,-0.1056,-0.1119,-0.112,-0.112,-0.1164,-0.1165,-0.1165,-0.1188,-0.1188,-0.1188,-0.1188,-0.1235,-0.1236,-0.1238,0,0,0,0,0,0,0,0,0,0,0,0,0,-0.1089,-0.1056,-0.1119,-0.1137,-0.1139,-0.1164,-0.1165,-0.1165,-0.1188,-0.1188,-0.1188,-0.1188,-0.1234,-0.1236,-0.1238,-0.125,0,0,-0.1244,-0.1245,0,0,0,0,0,0,0,0,-0.1087,-0.1092,-0.1134,-0.1136,-0.1138,-0.117,-0.1159,-0.1194,-0.1188,-0.1169,-0.1188,-0.1188,-0.1214,-0.1217,-0.1226,-0.1252,-0.1254,-0.1244,-0.1245,-0.1246,-0.1247,0,0,0,0,0,0,0,-0.1085,-0.109,-0.1137,-0.1134,-0.1137,-0.1143,-0.1148,-0.1166,-0.1191,-0.1171,-0.1173,-0.1178,-0.1215,-0.1224,-0.1227,-0.1255,-0.1244,-0.1246,-0.1247,-0.1248,-0.1293,-0.1294,0,0,0,0,0,0,-0.108,-0.1088,-0.1136,-0.1138,-0.1112,-0.1144,-0.115,-0.116,-0.1191,-0.1195,-0.1177,-0.1178,-0.1221,-0.1225,-0.1229,-0.1245,-0.1246,-0.1248,-0.1249,-0.1293,-0.1293,-0.1294,0,0,0,0,0,0,-0.1078,-0.1084,-0.1134,-0.1114,-0.112,-0.1145,-0.1157,-0.1161,-0.117,-0.1196,-0.1201,-0.1182,-0.1221,-0.1226,-0.1244,-0.1247,-0.1249,-0.125,-0.1293,-0.1293,-0.1293,-0.1277,0,0,0,0,0,0,-0.1076,-0.1083,-0.1087,-0.1113,-0.1121,-0.1148,-0.1157,-0.1162,-0.1173,-0.1174,-0.1201,-0.1206,-0.1221,-0.1242,-0.1246,-0.125,-0.1252,-0.1293,-0.1293,-0.1293,-0.1277,-0.1277,-0.1276,0,0,0,0,0,-0.1074,-0.1081,-0.1087,-0.1093,-0.1127,-0.1148,-0.1152,-0.117,-0.1173,-0.1178,-0.1195,-0.1205,-0.1246,-0.1243,-0.1249,-0.1253,-0.1293,-0.1293,-0.1293,-0.1278,-0.1277,-0.1276,0,0,0,0,0,0,-0.1054,-0.1084,-0.1092,-0.1107,-0.1125,-0.1152,-0.1158,-0.1168,-0.1185,-0.1186,-0.1208,-0.1214,-0.123,-0.1243,-0.124,-0.1266,-0.1271,-0.1272,-0.1257,-0.1256,-0.1255,-0.1252,-0.1253,0,0,0,0,0,-0.1051,-0.1065,-0.1091,-0.1102,-0.1111,-0.1133,-0.1143,-0.1155,-0.1174,-0.1181,-0.12,-0.1218,-0.1236,-0.1247,-0.1264,-0.1279,-0.1286,-0.1285,-0.1284,-0.1283,-0.1285,-0.1295,-0.1295,-0.1294,-0.1294,-0.1294,0,0,-0.1046,-0.1064,-0.1072,-0.1099,-0.1114,-0.1129,-0.1139,-0.1154,-0.1165,-0.1184,-0.1202,-0.1216,-0.1239,-0.1256,-0.1264,-0.1267,-0.1286,-0.1284,-0.1283,-0.1284,-0.1295,-0.1295,-0.1295,-0.1294,-0.1294,-0.1294,0,0,-0.1044,-0.1059,-0.1071,-0.1085,-0.1108,-0.1123,-0.1125,-0.1151,-0.1161,-0.118,-0.1194,-0.1208,-0.1237,-0.1253,-0.1265,-0.127,-0.128,-0.1275,-0.1271,-0.1281,-0.1281,-0.1281,-0.1284,-0.1284,-0.1276,-0.1276,-0.1276,0,-0.1035,-0.1057,-0.1075,-0.109,-0.1101,-0.1119,-0.1131,-0.1145,-0.1172,-0.118,-0.1183,-0.122,-0.1237,-0.1258,-0.1259,-0.1268,-0.1273,-0.1272,-0.1279,-0.1279,-0.128,-0.1283,-0.1284,-0.1275,-0.1275,-0.1275,-0.1275,0,-0.1045,-0.1061,-0.1067,-0.1093,-0.1105,-0.1119,-0.1139,-0.115,-0.1161,-0.1176,-0.1195,-0.1216,-0.1238,-0.1244,-0.1255,-0.1267,-0.1268,-0.1275,-0.128,-0.1279,-0.1282,-0.1283,-0.1274,-0.1274,-0.1274,-0.1275,0,0,-0.1032,-0.1068,-0.107,-0.1082,-0.1109,-0.1121,-0.1136,-0.1157,-0.1166,-0.1185,-0.1198,-0.1222,-0.1229,-0.1242,-0.1255,-0.1264,-0.1268,-0.1269,-0.127,-0.1269,-0.1284,-0.1279,-0.128,-0.1275,-0.1275,-0.1275,-0.1282,0,-0.1035,-0.1061,-0.1078,-0.1097,-0.1112,-0.1129,-0.1142,-0.116,-0.1175,-0.119,-0.1206,-0.1223,-0.123,-0.1238,-0.1247,-0.1265,-0.1271,-0.1265,-0.1288,-0.1289,-0.1282,-0.1281,-0.1276,-0.1282,-0.1283,-0.1284,-0.1284,0,-0.1041,-0.1059,-0.108,-0.1105,-0.1112,-0.1123,-0.1145,-0.1159,-0.118,-0.119,-0.1205,-0.1218,-0.1235,-0.1239,-0.1263,-0.1258,-0.1269,-0.1279,-0.128,-0.1283,-0.1286,-0.1285,-0.1284,-0.1285,-0.1286,-0.1285,-0.1285,0,-0.103,-0.1059,-0.1076,-0.1086,-0.1116,-0.1123,-0.1136,-0.1158,-0.117,-0.1188,-0.1197,-0.1217,-0.1229,-0.1245,-0.1264,-0.1265,-0.1287,-0.1291,-0.1296,-0.1296,-0.13,-0.13,-0.1301,-0.1306,-0.1306,-0.1306,-0.1306,0,-0.1031,-0.1044,-0.1071,-0.1082,-0.1096,-0.1116,-0.1131,-0.1145,-0.1164,-0.1178,-0.1194,-0.1207,-0.1231,-0.1247,-0.1262,-0.1281,-0.1286,-0.1295,-0.1299,-0.1294,-0.1293,-0.1301,-0.1301,-0.1306,-0.1306,-0.1306,-0.1306,0,-0.1022,-0.1041,-0.106,-0.1087,-0.1094,-0.1104,-0.1128,-0.1139,-0.1154,-0.1172,-0.1177,-0.1201,-0.1221,-0.1242,-0.1269,-0.1279,-0.1297,-0.1302,-0.129,-0.1292,-0.1296,-0.1295,-0.1304,-0.1306,-0.1308,-0.1308,-0.1308,0,-0.1021,-0.1031,-0.106,-0.107,-0.1082,-0.1099,-0.1111,-0.1132,-0.1144,-0.1169,-0.1178,-0.1199,-0.1217,-0.1248,-0.1269,-0.129,-0.1296,-0.1297,-0.1299,-0.1294,-0.1297,-0.1296,-0.1298,-0.1297,-0.1297,-0.1296,-0.1296,0,-0.1019,-0.1028,-0.1045,-0.1066,-0.108,-0.1097,-0.1115,-0.1123,-0.1147,-0.116,-0.1181,-0.1194,-0.1222,-0.1243,-0.1267,-0.1281,-0.1293,-0.1296,-0.1298,-0.1293,-0.1286,-0.1291,-0.1288,-0.1295,-0.1295,-0.1296,-0.1296,-0.1296,-0.1015,-0.1025,-0.1046,-0.1065,-0.1081,-0.1097,-0.1109,-0.1126,-0.1143,-0.1167,-0.1178,-0.1199,-0.1221,-0.1254,-0.1268,-0.1286,-0.1289,-0.1292,-0.1293,-0.1293,-0.1293,-0.1283,-0.129,-0.129,-0.129,-0.129,-0.129,0,-0.1014,-0.1029,-0.1046,-0.107,-0.1085,-0.1095,-0.1115,-0.1127,-0.1145,-0.1165,-0.1182,-0.1206,-0.1227,-0.1249,-0.1272,-0.1281,-0.1287,-0.1286,-0.1286,-0.1289,-0.1288,-0.1284,-0.1281,-0.1281,-0.1281,-0.1281,-0.1281,-0.1281,-0.1016,-0.1033,-0.1045,-0.1071,-0.1086,-0.1106,-0.1117,-0.1133,-0.1149,-0.1175,-0.1192,-0.1206,-0.1227,-0.1251,-0.1271,-0.1277,-0.1285,-0.1283,-0.129,-0.1289,-0.1289,-0.129,-0.1286,-0.1284,-0.1284,-0.1291,-0.1291,-0.1291]}]]